COSMOS 2251 DEB, 35023

Orbit data source: Space-Track

COSMOS 2251 DEB, 35023 is space debris in LEO originally from a launch on Wed, 16 Jun 1993 UTC launched from the Plesetsk Missile And Space Complex (PKMTR). The debris from Iridium 33, an American commercial communications satellite, has been tracked extensively since its accidental collision with the defunct Russian satellite Cosmos 2251 in 2009. This event, occurring at high speed in low Earth orbit (LEO), generated thousands of pieces of space debris, significantly increasing the risk of further collisions. The Iridium 33 debris cloud has impacted space traffic management and orbital debris mitigation strategies, making it a subject of ongoing study in space situational awareness.

Loading next visibility...
Identifier
35023, 1993-036AGL
Orbit
LEO
Country
Flag of CISCIS
Related business
Manufacturer
Unknown
Mission
Spacecraft
Bus & Motor
Unknown
Mass
Unknown
Launch date (UTC)
1993-06-16 (33 years ago)
Launch vehicle
Unknown
Launch site
Plesetsk Missile And Space Complex (PKMTR)
Object type
Payload
Rocket body
Debris
Shape & HBR
Unknown shape, 0.1 m
Radar Cross Section
Medium (>0.1 m² and <1 m²)

Expand to show TLE details & history
Last TLE update: 16 hours ago

TLE from 16 hours ago
0 COSMOS 2251 DEB
1 35023U 93036AGL 26228.39508082  .00011555  00000-0  82785-3 0  9999
2 35023  74.0331  71.1453 0028360  92.8768 327.7426 15.04117070919784
Epoch: 2026-08-16T09:28Z
TLE epoch observation values (Epoch: 2026-08-16T09:28:54.982Z)
Latitude
56.86574°
Longitude
-10.03147°
Altitude
546.789 km
Speed
7.604 km/s
True Right ascension
06h 27m 57s
True Declination
56° 42' 12"
Sunlit
Object was in daylight at epoch
Visualization orbit readout
Latitude
Unknown
Longitude
Unknown
Altitude
Unknown
Speed
Unknown
Apparent Right ascension
Unknown
Apparent Declination
Unknown
Sunlit
N/A
Visualization observer readout
Local Sidereal Time
16:08:42
Azimuth
Unknown
Elevation
Unknown
Doppler factor
Unknown
Orbital elements
Apogee altitude
571.42 km
Perigee altitude
532.114 km
Semi-major axis
6,929.904 km
Eccentricity
0.00284
Inclination
74.0331°
RAAN
71.1453°
Arg. of periapsis
92.8768°
True anomaly
327.56863°
Mean anomaly
327.7426°
Eccentric anomaly
327.65567°
Mean motion
3.76229 °/min
Orbital period
95.69 mins
BSTAR
0.00082785
Loading maneuver chart data...
Computing Atmospheric mass density...

Documentation

Showing up to 5 results
|